Flag for Colombia Weather past 2 weeks in Barranquilla, Colombia

Now
81 °F

Broken clouds.


Feels Like: 87 °F
Forecast: 79 / 89 °F
Wind: 12 mph from Southeast

Location: Barranquilla / Ernestocortissoz

Current Time: Sep 20, 2014 at 9:25:03 AM

Latest Report: Sep 20, 2014 at 8:00 AM


Visibility: 5 mi

Pressure: 29.89 "Hg

Humidity: 89%

Dew point: 77 °F

Location of BarranquillaLocation

Historic Weather in Barranquilla — Graph

°F

Barranquilla temperature yesterday

Maximum temperature yesterday: 93 °F (at 2:00 PM)
Minimum temperature yesterday: 77 °F (at 12:00 AM)
Average temperature yesterday: 83 °F

Past Weeks' High & Low Weather Summary

 TemperatureHumidityPressure
High95 °F (Sep 5, 1:00 PM)100% (Sep 5, 8:00 AM)29.97 "Hg (Sep 5, 8:00 AM)
Low73 °F (Sep 15, 5:00 AM)59% (Sep 19, 2:00 PM)29.72 "Hg (Sep 7, 4:00 PM)
Average82 °F88%29.83 "Hg
* Reported Sep 5 8:00 AM — Sep 20 8:00 AM, Barranquilla, Weather by CustomWeather, © 2014

Note: Actual official high and low records may vary slightly from our data, if they occured in-between our weather recording intervals... More about our weather records

Advertising

Barranquilla weather history for previous 24 hours

 ConditionsComfort  
Time TempWeatherWind HumidityBarometerVisibility
8:00 AM
Sep 20
81 °FBroken clouds.12 mph89%29.89 "Hg5 mi
7:00 AM77 °FPartly sunny.No wind94%29.88 "Hg4 mi
6:00 AM75 °FFog.7 mph100%29.86 "Hg1 mi
5:00 AM75 °FFog.No wind100%29.83 "Hg0 mi
4:00 AM75 °FFog.5 mph100%29.82 "Hg5 mi
3:00 AM77 °FPassing clouds.3 mph100%29.82 "HgN/A
2:00 AM77 °FPassing clouds.5 mph100%29.83 "HgN/A
1:00 AM77 °FPassing clouds.3 mph100%29.85 "HgN/A
12:00 AM77 °FPassing clouds.7 mph100%29.88 "HgN/A
11:00 PM
Sep 19
82 °FPassing clouds.7 mph89%29.87 "HgN/A
10:00 PM82 °FPassing clouds.9 mph89%29.87 "HgN/A
9:00 PM77 °FPartly cloudy.7 mph94%29.86 "HgN/A
8:00 PM77 °FPassing clouds.7 mph94%29.88 "HgN/A
7:00 PM81 °FScattered showers. Passing clouds.3 mph89%29.85 "Hg5 mi
6:00 PM84 °FMixture of precip. Passing clouds.6 mph84%29.80 "HgN/A
5:00 PM86 °FPassing clouds.12 mph79%29.77 "HgN/A
4:00 PM88 °FPassing clouds.14 mph75%29.77 "HgN/A
3:00 PM90 °FPassing clouds.8 mph71%29.76 "HgN/A
2:00 PM93 °FScattered clouds.5 mph59%29.80 "HgN/A
1:00 PM91 °FScattered clouds.No wind67%29.82 "HgN/A
12:00 PM90 °FScattered clouds.3 mph71%29.87 "HgN/A
11:00 AM88 °FScattered clouds.5 mph75%29.88 "HgN/A
10:00 AM86 °FScattered clouds.6 mph79%29.90 "HgN/A
9:00 AM84 °FScattered clouds.6 mph84%29.91 "HgN/A
Weather by CustomWeather, © 2014

See weather overviewHow to use our weather pages